CZ-4B R/B (29507 NORAD) Tracking and Keplerian Element Data

This shows tracking and keplerian element data for the satellite.

Feedback or suggestion? Click here.




ElementValue
Catalog29507
NameCZ-4B R/B
Epoch Orbit65830
Epoch Day318.51160577
Epoch Year2018
RAAN331.3516
Inclination97.7715
Eccentricity0.004893
Argument of Perigee317.8112
Mean Anonmoly41.935
Mean Motion15.00329598
Decay Rate3.3E-06
L11 29507U 06046C 18318.51160577 .00000330 00000-0 30743-4 0 9999
L22 29507 97.7715 331.3516 0048930 317.8112 41.9350 15.00329598658306

Live tracking and technical data element details for CZ-4B R/B (NORAD 29507). CZ-4B R/B can be tracked NOW for your location showing map with azimuth and elevation plus other details from your city location.

Track the satellite on the map from your city or location and see movement details for azimuth, elevation, latitude, longitude, range, height, and movement on the map or in text.







IsCatalogInMostPopularTable: catalog: 29507, numindb: 43
Update: records affected: 1



GetName: 29507 CZ-4B R/B

Hit Count: updated at: Fri, 16 Nov 2018 05:17:42 GMT